Regional Weather Roundup
Issued by NWS Sterling, VA

Home | Current Version | Previous Version | Graphics & Text | Print | Product List | Glossary On
Versions: 1 2 3 4 5 6 7 8 9 10 11 12 13 14 15 16 17 18 19 20 21 22 23 24 25 26 27 28 29 30 31 32 33 34 35 36 37 38 39 40 41 42 43 44 45 46 47 48 49 50
000
ASUS41 KLWX 260011
RWRLWX

REGIONAL WEATHER ROUNDUP
NATIONAL WEATHER SERVICE BALTIMORE MD/WASHINGTON DC
800 PM EDT SUN JUN 25 2017

Note: "FAIR" indicates few or no clouds below 12,000 feet
with no significant weather and/or obstructions to visibility.
 TC=TEMPERATURE CELSIUS

 * =Non NWS site. Station does not report precipitation (e.g. rain,
    snow, etc.), thunder, or fog.

DCZ001-MDZ009-015-VAZ040>042-051-053>054-260100-
WASHINGTON METRO

CITY           SKY/WX    TMP DP  RH WIND       PRES   REMARKS
WASHINGTON NAT PTCLDY    82  46  28 NW16      30.01R
DULLES         PTCLDY    78  45  30 NW9       30.03R
ANDREWS AFB    PTCLDY    80  45  28 NW13      30.00R
FT BELVOIR     PTCLDY    81  46  29 NW10G17   30.01R
QUANTICO       CLOUDY    82  49  31 N9        30.01R
COLLEGE PARK*  CLEAR     80  44  28 NW8       30.01R
LEESBURG*      CLEAR    N/A N/A N/A NW9       30.04R
MANASSAS*      MOCLDY    79  50  36 N9        30.03R
GAITHERSBURG*  CLEAR     75  48  38 NW6       30.04R

$$

MDZ006>007-011-014-260100-
BALTIMORE METRO

CITY           SKY/WX    TMP DP  RH WIND       PRES   REMARKS
BWI AIRPORT    PTCLDY    79  49  34 W12G17    30.00R
MD SCIENCE CTR   N/A     82  47  29 MISG      30.00R
MARTIN STATE   PTCLDY    82  48  30 W17       30.00R
ANNAPOLIS      PTCLDY    79  52  38 NW8       29.99R
FORT MEADE*    CLEAR     75  48  38 NW6       30.03R

$$

MDZ012-015-019>023-260100-
MARYLAND EASTERN SHORE

CITY           SKY/WX    TMP DP  RH WIND       PRES   REMARKS
OCEAN CITY     CLOUDY    73  67  81 S5        30.00S
SALISBURY      CLOUDY    78  63  59 SW7       29.99R
BAY BRIDGE AP* PTCLDY    81  50  34 NW12G20   29.99R
CAMBRIDGE*     CLEAR     81  63  54 CALM      29.99R
EASTON*        MOCLDY    81  63  54 CALM      30.03R

$$

MDZ017>025-260100-
SOUTHERN MARYLAND

CITY           SKY/WX    TMP DP  RH WIND       PRES   REMARKS
PATUXENT RIVER CLOUDY    80  64  58 SW6       29.99R
ST INIGOES     CLOUDY    80  66  62 S3        29.98S
LEONARDTOWN*   CLOUDY    79  63  57 CALM      30.01R

$$

MDZ003>005-260100-
NORTH CENTRAL MARYLAND

CITY           SKY/WX    TMP DP  RH WIND       PRES   REMARKS
FREDERICK*     CLEAR     79  45  29 W6        30.05R
HAGERSTOWN APT CLEAR     77  46  33 W7        30.03R
WESTMINSTER*   CLEAR     81  50  34 W8        30.03R

$$

MDZ501>502-260100-
WESTERN MARYLAND

CITY           SKY/WX    TMP DP  RH WIND       PRES   REMARKS
OAKLAND*       NOT AVBL
CUMBERLAND*    CLEAR     75  45  33 W5        30.08R

$$

VAZ025>031-260100-
SHENANDOAH VALLEY

CITY           SKY/WX    TMP DP  RH WIND       PRES   REMARKS
WINCHESTER*    CLEAR     73  45  35 W6        30.05R
FRONT ROYAL*   CLEAR     77  43  29 W8        30.05S
LURAY*         PTCLDY    77  45  31 W5        30.06S
NEW MARKET*    CLEAR     70  47  44 CALM      30.06S
STAUNTON*      PTCLDY    73  46  38 NW8       30.11R
WAYNESBORO*    CLEAR     73  46  38 NW6       30.10R

$$

WVZ021-048>050-054>055-260100-
EASTERN WEST VIRGINIA PANHANDLE

CITY           SKY/WX    TMP DP  RH WIND       PRES   REMARKS
MARTINSBURG    CLEAR     75  46  35 SW10      30.03R
PETERSBURG*    CLEAR     73  50  45 W3        30.08R

$$

VAZ036>039-050-260100-
CENTRAL FOOTHILLS

CITY           SKY/WX    TMP DP  RH WIND       PRES   REMARKS
CHARLOTTESVILL PTCLDY    79  48  33 NW5       30.04R
CULPEPER*      MOCLDY    79  50  36 NW6       30.04R
ORANGE*        CLOUDY    77  48  36 NW6       30.03R
GORDONSVILLE*  MOCLDY    79  51  37 CALM      30.03R
WARRENTON*     CLOUDY    80  44  27 NW5       30.03R

$$

VAZ055>057-260100-
NORTH AND CENTRAL PIEDMONT

CITY           SKY/WX    TMP DP  RH WIND       PRES   REMARKS
FREDERICKSBRG* CLOUDY    81  58  45 N9        30.00R
STAFFORD*      MOCLDY    77  53  42 NW7       30.05R

$$

NCZ024-NYZ072-PAZ021-071-VAZ022-071-260100-
OTHER REGIONAL OBSERVATIONS

CITY           SKY/WX    TMP DP  RH WIND       PRES   REMARKS
NEW YORK CITY  PTCLDY    76  60  57 VRB3      29.95S
PHILADELPHIA   MOCLDY    83  52  34 W13       29.96R
PITTSBURGH     PTCLDY    71  46  40 W15       30.04R
ROANOKE        PTCLDY    74  48  39 NW8       30.13R
RICHMOND       CLOUDY    80  59  48 W7        30.01R
RALEIGH        CLOUDY    78  64  61 NW3       30.07R

$$

ANZ530>537-260100-
MARINE OBSERVATIONS

STATION/POSITION TIME  TEMP    WIND        PRES
                       AIR SEA DIR/SP/G
                 (UTC) (F)     (DEG/KT/KT) (MB)
THOMAS PT LIGHT  0000   81 79  310/ 14/ 16   N/A
BALT KEY BRIDGE  2342   81     290/ 16/ 19 1015.1R
COVE POINT       2342   81     250/  5/  7 1016.0R
LEWISETTA        2342   81 81  190/  3/  3 1015.6R
SOLOMONS ISLAND  2342   80 79  240/  6/  6   N/A
PINEY POINT      2336          200/  4/  5   N/A

$$




USA.gov is the U.S. government's official web portal to all federal, state and local government web resources and services.